Weather History for PAEI - November, 2012

Change the Weather History Date:

Friday, November 23, 2012

  Actual Average Record
Temperature  
Mean Temperature -10 °F -  
Max Temperature 3 °F 7 °F 49 °F (1952)
Min Temperature -22 °F -5 °F -39 °F (1963)
Degree Days  
Heating Degree Days 74    
Moisture  
Dew Point -19 °F    
Average Humidity 70    
Maximum Humidity 78    
Minimum Humidity 59    
Precipitation  
Precipitation 0.00 in - - ()
Sea Level Pressure  
Sea Level Pressure 30.04 in    
Wind  
Wind Speed 6 mph (NE)    
Max Wind Speed 16 mph    
Max Gust Speed -    
Visibility 10 miles    
Events      
Averages and records for this station are not official NWS values.
T = Trace of Precipitation, MM = Missing Value Source: NWS Daily Summary

Daily Weather History Graph

Daily Weather History Graph

Search for Another Location

Airport or City:

Trip Planner

Search our weather history database for the weather conditions in past years. The results will help you decide how hot, cold, wet, or windy it might be!

Date:

Astronomy

Nov. 23, 2012 Rise Set
Actual Time 9:51 AM AKST 3:18 PM AKST
Civil Twilight 8:43 AM AKST 4:26 PM AKST
Nautical Twilight 7:38 AM AKST 5:31 PM AKST
Astronomical Twilight 6:39 AM AKST 6:29 PM AKST
Moon 2:03 PM AKST (11/23) 3:44 AM AKST (11/23)
Length of Visible Light 7h 43m
Length of Day
5h 27m
Waxing Gibbous, 81% of the Moon is Illuminated
Nov 23
Waxing Gibbous
Nov 28
Full
Dec 6
Last Quarter
Dec 12
New
Dec 19
First Quarter

Hourly Weather History & Observations

Time (AKST) Temp. Windchill Dew Point Humidity Pressure Visibility Wind Dir Wind Speed Gust Speed Precip Events Conditions
12:55 AM -1.1 °F -16.6 °F -10.5 °F 65% 30.01 in 10.0 mi North 9.2 mph - N/A   Clear
1:55 AM -8.9 °F -18.0 °F -17.9 °F 65% 30.01 in 10.0 mi North 3.5 mph - N/A   Clear
2:55 AM 1.2 °F -12.7 °F -9.4 °F 61% 30.00 in 10.0 mi North 8.1 mph - N/A   Clear
3:55 AM 1.2 °F -15.6 °F -9.2 °F 62% 30.00 in 10.0 mi North 11.5 mph - N/A   Clear
4:55 AM 3.2 °F -13.9 °F -8.3 °F 59% 29.99 in 10.0 mi NE 12.7 mph - N/A   Clear
5:55 AM 1.9 °F -17.5 °F -8.5 °F 62% 29.99 in 10.0 mi North 16.1 mph - N/A   Clear
6:55 AM 2.3 °F -15.7 °F -8.5 °F 61% 29.98 in 10.0 mi NNE 13.8 mph - N/A   Clear
7:55 AM -2.0 °F -19.6 °F -11.2 °F 65% 29.99 in 10.0 mi NNE 11.5 mph - N/A   Clear
8:55 AM -18.0 °F -28.5 °F -24.5 °F 72% 30.01 in 10.0 mi South 3.5 mph - 0.00 in   Clear
9:55 AM -18.4 °F - -24.0 °F 76% 30.02 in 10.0 mi Calm Calm - N/A   Clear
10:55 AM -19.1 °F -29.7 °F -25.4 °F 73% 30.03 in 10.0 mi SSE 3.5 mph - N/A   Clear
11:55 AM -15.5 °F - -21.6 °F 74% 30.03 in 10.0 mi Calm Calm - N/A   Clear
12:55 PM -11.4 °F - -18.0 °F 72% 30.03 in 10.0 mi Calm Calm - N/A   Clear
1:55 PM -11.7 °F - -17.9 °F 74% 30.04 in 10.0 mi Calm Calm - N/A   Clear
2:55 PM -14.1 °F - -20.2 °F 74% 30.05 in 10.0 mi Calm Calm - N/A   Clear
3:55 PM -11.7 °F - -16.8 °F 78% 30.05 in 10.0 mi Calm Calm - N/A   Clear
4:55 PM -14.8 °F -24.8 °F -20.4 °F 76% 30.06 in 10.0 mi South 3.5 mph - N/A   Clear
5:55 PM -14.6 °F -28.9 °F -20.2 °F 76% 30.07 in 10.0 mi South 5.8 mph - N/A   Clear
6:55 PM -19.5 °F - -25.8 °F 73% 30.08 in 10.0 mi Calm Calm - N/A   Clear
7:55 PM -19.1 °F - -25.2 °F 73% 30.09 in 10.0 mi Calm Calm - N/A   Clear
8:55 PM -19.1 °F - -25.2 °F 73% 30.11 in 10.0 mi Calm Calm - N/A   Clear
9:55 PM -21.6 °F - -27.9 °F 73% 30.12 in 10.0 mi Calm Calm - N/A   Clear
10:55 PM -22.9 °F - -29.6 °F 71% 30.13 in 10.0 mi Calm Calm - N/A   Clear
11:55 PM -20.4 °F - -26.9 °F 72% 30.14 in 10.0 mi Calm Calm - N/A   Clear